NIMBUS 2 DEB, 28613

Orbit data source: Space-Track

NIMBUS 2 DEB, 28613 is space debris in SSO originally from a launch on Sun, 15 May 1966 UTC launched from the Air Force Western Test Range (AFWTR). Debris objects in space refer to the collection of defunct objects orbiting the Earth. Examples of debris include non-operational satellites, rocket bodies, and fragments generated from explosions, collisions, or faulty payload assembly.

Loading next visibility...
NIMBUS 2 DEB details
Identifier
28613, 1966-040AC
Orbit
SSO
Last TLE update4 days ago
Origin
Flag of USGSFC (US)
ManufacturerUnknown
MissionSpacecraft
Bus & MotorUnknown
MassUnknown
Launch date (UTC)
1966-05-15 (59 years ago)
Launch vehicleUnknown
Launch site
Air Force Western Test Range (AFWTR)
Object type
Payload
Rocket body
Debris
Shape & HBRUnknown
Radar Cross SectionSmall (<0.1 m²)

Expand to show TLE details & history

TLE from 4 days ago
0 NIMBUS 2 DEB
1 28613U 66040AC  24353.05266762  .00006179  00000-0  72272-2 0  9992
2 28613 100.3961 100.7839 0046282 140.1191  36.9620 13.68350604568538
Epoch: 2024-12-18T01:15Z
Definitive object data (Epoch: 2024-12-18T01:15:50.482Z)
Latitude2.45807°
Longitude175.12004°
Altitude980.746 km
Speed7.375 km/s
True Right ascension18h 44m 55s
True Declination2° 26' 38"
Sunlit
Object was in daylight at TLE epoch
Visualization TLE readout
Latitude-5.70329°
Longitude0.23772°
Altitude1,033.213 km
Speed7.323 km/s
Apparent Right ascension09h 33m 12s
Apparent Declination-51° 34' 40"
Sunlit
Object is in full shadow
Visualization observer readout
Local Sidereal Time05:13:53
Azimuth143.871° SSE
Elevation-17.457°
Doppler factor1
Orbital elements
Apogee altitude1,036.973 km
Perigee altitude968.652 km
Semi-major axis7,380.95 km
Eccentricity0.0046282
Inclination100.3961°
RAAN100.7839°
Arg. of periapsis140.1191°
True anomaly37.28237°
Mean anomaly36.962°
Eccentric anomaly37.12204°
Mean motion3.42275 °/min
BSTAR0.0072272
Orbital period105.18 mins
Loading maneuver chart data...
Loading historical data...
Loading historical data...
Loading historical data...
Loading historical data...
Loading historical data...
Loading historical data...
Loading historical data...

NIMBUS 2 DEB Visibility forecast

Observer location: undefined°, undefined

Span
Click to sort rows by Start time (UTC) header in descending order
Start Az.
Max El. time (UTC)
Max El. Az.
Max El.
End time (UTC)
End Az.
10 mins2024-12-22 06:19:11.252Z122.059° SE2024-12-22 06:24:11.252Z59.646° ENE28.747°2024-12-22 06:29:11.252Z3.598° NNE
10 mins2024-12-22 08:03:11.252Z199.73° SSW2024-12-22 08:07:11.252Z253.617° W32.282°2024-12-22 08:13:11.252Z328.471° NNW
7 mins2024-12-22 19:06:11.252Z58.648° ENE2024-12-22 19:09:11.252Z92.902° ESE18.28°2024-12-22 19:13:11.252Z136.139° SSE
10 mins2024-12-22 20:49:11.252Z4.476° NNE2024-12-22 20:53:11.252Z297.908° NW41.385°2024-12-22 20:59:11.252Z211.348° SW
|